GW4902 Weather Reports


time (UTC)temp
C
wind
direction
speed
KPH
gust
KPH
rain 1hr
cm
rain 24hr
cm
rain mn
cm
humidity
%
barometer
mb
20260504081039 8 335 1.6 6.4 0.00 0.00 0.00 49 1015.9
20260504080541 8 335 1.6 6.4 0.00 0.00 0.00 49 1015.9
20260504050540 10 344 11.3 24.1 0.00 0.00 0.00 43 1015.1
20260504045542 11 355 12.9 27.4 0.00 0.00 0.00 42 1015.0
20260504045039 11 348 12.9 27.4 0.00 0.00 0.00 42 1014.9
20260504044559 11 341 16.1 32.2 0.00 0.00 0.00 42 1014.9
20260504044041 11 325 22.5 32.2 0.00 0.00 0.00 41 1014.9
20260504043540 11 336 17.7 33.8 0.00 0.00 0.00 42 1014.7
20260504043047 11 341 16.1 33.8 0.00 0.00 0.00 42 1014.4
20260504042539 11 309 16.1 30.6 0.00 0.00 0.00 42 1014.4
20260504042039 11 338 16.1 30.6 0.00 0.00 0.00 42 1014.4
20260504041554 11 343 16.1 32.2 0.00 0.00 0.00 41 1014.4
20260504041039 11 348 16.1 32.2 0.00 0.00 0.00 40 1014.2
20260504040541 11 328 19.3 32.2 0.00 0.00 0.00 40 1013.9
20260504040059 11 346 19.3 30.6 0.00 0.00 0.00 41 1013.9
20260504035539 11 31 19.3 32.2 0.00 0.00 0.00 39 1013.7
20260504035039 11 14 14.5 32.2 0.00 0.00 0.00 39 1013.6
20260504034553 11 355 12.9 30.6 0.00 0.00 0.00 37 1013.5
20260504034040 11 15 17.7 30.6 0.00 0.00 0.00 37 1013.4
20260504033540 11 27 16.1 32.2 0.00 0.00 0.00 37 1013.3
20260504033056 12 17 12.9 32.2 0.00 0.00 0.00 36 1013.2
20260504032540 12 15 14.5 25.7 0.00 0.00 0.00 36 1013.2
20260504032040 12 20 12.9 27.4 0.00 0.00 0.00 36 1013.1
20260504031550 12 42 16.1 35.4 0.00 0.00 0.00 36 1012.9
20260504031039 12 355 17.7 35.4 0.00 0.00 0.00 35 1012.8
20260504030542 12 15 17.7 29.0 0.00 0.00 0.00 35 1012.7
20260504030047 12 9 12.9 27.4 0.00 0.00 0.00 35 1012.7
20260504025539 12 22 12.9 27.4 0.00 0.00 0.00 35 1012.4
20260504025040 12 39 16.1 27.4 0.00 0.00 0.00 35 1012.3
20260504024550 13 16 12.9 27.4 0.00 0.00 0.00 34 1012.0
20260504024040 13 13 14.5 35.4 0.00 0.00 0.00 34 1011.9
20260504023540 13 25 16.1 35.4 0.00 0.00 0.00 34 1011.8
20260504023049 13 32 14.5 35.4 0.00 0.00 0.00 34 1011.7
20260504022540 13 23 8.0 20.9 0.00 0.00 0.00 35 1011.7
20260504022039 13 26 9.7 20.9 0.00 0.00 0.00 35 1011.6
20260504021547 13 24 9.7 22.5 0.00 0.00 0.00 34 1011.5
20260504021041 13 30 8.0 25.7 0.00 0.00 0.00 34 1011.4
20260504020541 13 26 16.1 30.6 0.00 0.00 0.00 34 1011.3
20260504020049 14 24 16.1 30.6 0.00 0.00 0.00 34 1011.2
20260504015539 14 17 19.3 30.6 0.00 0.00 0.00 33 1011.1
20260504015042 14 19 16.1 33.8 0.00 0.00 0.00 33 1011.0
20260504014552 14 28 17.7 35.4 0.00 0.00 0.00 33 1011.0
20260504014039 14 46 24.1 35.4 0.00 0.00 0.00 33 1011.0
20260504013539 15 31 19.3 33.8 0.00 0.00 0.00 33 1010.7
20260504013051 15 46 20.9 35.4 0.00 0.00 0.00 32 1010.6
20260504012542 15 30 20.9 38.6 0.00 0.00 0.00 32 1010.6
20260504012039 16 36 17.7 38.6 0.00 0.00 0.00 31 1010.6
20260504011550 16 39 16.1 29.0 0.00 0.00 0.00 31 1010.5
20260504011038 16 5 16.1 35.4 0.00 0.00 0.00 31 1010.3
20260504010539 16 15 14.5 43.5 0.00 0.00 0.00 32 1010.2
20260504010055 16 9 22.5 43.5 0.00 0.00 0.00 31 1010.1
20260504005540 17 360 16.1 29.0 0.00 0.00 0.00 31 1010.0
20260504005040 17 30 17.7 37.0 0.00 0.00 0.00 31 1010.0
20260504004550 17 18 17.7 37.0 0.00 0.00 0.00 31 1009.9
20260504004040 17 321 19.3 37.0 0.00 0.00 0.00 30 1009.9
20260504003543 17 329 22.5 37.0 0.00 0.00 0.00 31 1009.9
20260504003051 17 27 19.3 37.0 0.00 0.00 0.00 31 1009.7
20260504002539 17 352 12.9 32.2 0.00 0.00 0.00 30 1009.6
20260504002039 18 37 16.1 32.2 0.00 0.00 0.00 30 1009.6
20260504001607 18 352 19.3 32.2 0.00 0.00 0.00 30 1009.5
20260504001039 18 37 16.1 30.6 0.00 0.00 0.00 30 1009.5
20260504000540 18 350 19.3 37.0 0.00 0.00 0.00 29 1009.5
20260504000053 18 352 17.7 37.0 0.00 0.00 0.00 30 1009.5
20260503235540 18 319 16.1 33.8 0.00 0.00 0.00 30 1009.3
20260503235040 18 345 19.3 33.8 0.00 0.00 0.00 29 1009.4
20260503234547 18 349 14.5 37.0 0.00 0.00 0.00 30 1009.4
20260503234040 18 339 20.9 37.0 0.00 0.00 0.00 30 1009.4
20260503233540 18 44 16.1 37.0 0.00 0.00 0.00 30 1009.3
20260503233053 18 345 22.5 33.8 0.00 0.00 0.00 30 1009.4
20260503232542 18 5 17.7 29.0 0.00 0.00 0.00 30 1009.3
20260503232040 18 16 17.7 33.8 0.00 0.00 0.00 29 1009.3
20260503231557 18 5 17.7 33.8 0.00 0.00 0.00 29 1009.3
20260503231040 18 5 20.9 33.8 0.00 0.00 0.00 29 1009.3
20260503230541 18 342 17.7 29.0 0.00 0.00 0.00 29 1009.3
20260503230048 18 10 17.7 29.0 0.00 0.00 0.00 30 1009.4
20260503225540 18 11 17.7 25.7 0.00 0.00 0.00 29 1009.4
20260503225040 18 15 14.5 27.4 0.00 0.00 0.00 29 1009.4
20260503224551 18 306 14.5 35.4 0.00 0.00 0.00 29 1009.3
20260503224039 18 352 11.3 35.4 0.00 0.00 0.00 30 1009.5
20260503223542 18 58 19.3 35.4 0.00 0.00 0.00 29 1009.3
20260503223049 18 5 19.3 32.2 0.00 0.00 0.00 30 1009.4
20260503222539 18 16 17.7 32.2 0.00 0.00 0.00 28 1009.3
20260503222039 19 344 12.9 33.8 0.00 0.00 0.00 31 1009.3
20260503221551 19 352 17.7 33.8 0.00 0.00 0.00 29 1009.3
20260503221043 20 44 19.3 32.2 0.00 0.00 0.00 27 1009.2
20260503220540 20 9 16.1 35.4 0.00 0.00 0.00 28 1009.2
20260503220109 20 40 19.3 35.4 0.00 0.00 0.00 28 1009.3
20260503215539 20 50 17.7 32.2 0.00 0.00 0.00 26 1009.2
20260503215039 20 49 14.5 29.0 0.00 0.00 0.00 27 1009.2
20260503214548 20 37 11.3 27.4 0.00 0.00 0.00 27 1009.1
20260503214041 20 5 11.3 30.6 0.00 0.00 0.00 25 1009.2
20260503213539 20 318 14.5 30.6 0.00 0.00 0.00 24 1009.2
20260503213054 21 311 9.7 24.1 0.00 0.00 0.00 25 1009.2
20260503212539 20 350 9.7 25.7 0.00 0.00 0.00 25 1009.2
20260503212041 20 311 11.3 25.7 0.00 0.00 0.00 25 1009.2
20260503211605 21 10 8.0 22.5 0.00 0.00 0.00 27 1009.2
20260503211042 20 343 9.7 24.1 0.00 0.00 0.00 26 1009.3
20260503210539 20 360 14.5 30.6 0.00 0.00 0.00 27 1009.4
20260503210055 20 10 16.1 30.6 0.00 0.00 0.00 25 1009.5
20260503205539 20 5 12.9 25.7 0.00 0.00 0.00 27 1009.5
20260503205040 20 320 8.0 25.7 0.00 0.00 0.00 27 1009.5
20260503204556 20 305 14.5 25.7 0.00 0.00 0.00 26 1009.6
20260503204038 20 32 12.9 25.7 0.00 0.00 0.00 27 1009.5
20260503203539 20 350 12.9 25.7 0.00 0.00 0.00 26 1009.6
20260503203055 20 323 12.9 25.7 0.00 0.00 0.00 26 1009.7
20260503202539 20 20 11.3 27.4 0.00 0.00 0.00 26 1009.8
20260503202039 20 18 12.9 27.4 0.00 0.00 0.00 28 1009.9
20260503201552 20 349 11.3 27.4 0.00 0.00 0.00 27 1009.9
20260503201038 19 346 12.9 25.7 0.00 0.00 0.00 27 1010.0
20260503200542 19 360 11.3 22.5 0.00 0.00 0.00 26 1010.2
20260503200055 20 340 9.7 22.5 0.00 0.00 0.00 26 1010.1
20260503195539 19 352 12.9 22.5 0.00 0.00 0.00 27 1010.1
20260503195038 19 337 12.9 22.5 0.00 0.00 0.00 26 1010.0
20260503194555 19 315 11.3 19.3 0.00 0.00 0.00 27 1010.2
20260503194040 19 346 11.3 27.4 0.00 0.00 0.00 27 1010.2
20260503193540 19 346 14.5 27.4 0.00 0.00 0.00 28 1010.2
20260503193053 19 26 6.4 24.1 0.00 0.00 0.00 29 1010.2
20260503192539 19 352 8.0 24.1 0.00 0.00 0.00 28 1010.3
20260503192041 18 17 9.7 22.5 0.00 0.00 0.00 28 1010.4
20260503191557 18 56 11.3 24.1 0.00 0.00 0.00 28 1010.4
20260503191040 18 15 12.9 27.4 0.00 0.00 0.00 29 1010.7
20260503190538 18 352 14.5 27.4 0.00 0.00 0.00 27 1010.7
20260503190052 18 332 14.5 22.5 0.00 0.00 0.00 27 1010.8
20260503185539 18 318 12.9 22.5 0.00 0.00 0.00 27 1010.9
20260503185042 18 41 11.3 24.1 0.00 0.00 0.00 28 1010.8
20260503184554 18 342 9.7 24.1 0.00 0.00 0.00 28 1010.8
20260503184040 18 265 11.3 22.5 0.00 0.00 0.00 25 1010.9
20260503183538 19 309 9.7 22.5 0.00 0.00 0.00 26 1011.0
20260503183101 18 277 8.0 25.7 0.00 0.00 0.00 27 1011.0
20260503182539 18 298 9.7 29.0 0.00 0.00 0.00 27 1011.1
20260503182043 18 320 17.7 29.0 0.00 0.00 0.00 25 1011.2
20260503181618 18 336 8.0 20.9 0.00 0.00 0.00 26 1011.2
20260503181040 18 360 9.7 25.7 0.00 0.00 0.00 27 1011.3
20260503180540 18 320 12.9 25.7 0.00 0.00 0.00 27 1011.4
20260503180113 18 342 9.7 25.7 0.00 0.00 0.00 30 1011.5
20260503175539 18 360 9.7 25.7 0.00 0.00 0.00 29 1011.4
20260503175040 18 311 12.9 25.7 0.00 0.00 0.00 28 1011.6
20260503174556 17 346 14.5 24.1 0.00 0.00 0.00 27 1011.6
20260503174039 17 333 12.9 25.7 0.00 0.00 0.00 27 1011.6
20260503173539 17 21 16.1 29.0 0.00 0.00 0.00 27 1011.7
20260503173057 18 5 16.1 30.6 0.00 0.00 0.00 27 1011.8
20260503172539 17 33 16.1 30.6 0.00 0.00 0.00 29 1011.9
20260503172038 17 352 14.5 29.0 0.00 0.00 0.00 27 1012.0
20260503171553 17 350 14.5 33.8 0.00 0.00 0.00 26 1011.9
20260503171039 18 338 20.9 33.8 0.00 0.00 0.00 26 1012.0
20260503170540 18 350 12.9 30.6 0.00 0.00 0.00 25 1011.9
20260503150538 13 296 4.8 14.5 0.00 0.00 0.00 35 1012.4
20260503131039 8 263 1.6 9.7 0.00 0.00 0.00 41 1012.6
20260503130539 8 263 3.2 9.7 0.00 0.00 0.00 41 1012.7
20260503120106 8 266 3.2 11.3 0.00 0.00 0.00 38 1012.9
20260503110542 7 0 0.0 3.2 0.00 0.00 0.00 40 1013.2
20260503100106 9 342 0.0 4.8 0.00 0.00 0.00 35 1013.3
20260503081550 11 322 3.2 8.0 0.00 0.00 0.00 29 1013.1